Location: Huntsville
(41.2590°N, 111.7678°W)
Time: 09:09:06
(UTC+00:00)

Courier 1B Rocket - All Passes

Search period start: 25 September 2022 00:00
Search period end: 05 October 2022 00:00
Orbit: 920 x 1202 km, 28.2° (Epoch: 24 September)

Date Brightness Start Highest point End Pass type
(mag) Time Alt. Az. Time Alt. Az. Time Alt. Az.
25 Sep - 05:57:45 10° SW 06:02:15 21° SSE 06:06:50 10° ESE night (unlit)
25 Sep - 07:49:44 10° SW 07:54:45 25° S 07:59:58 10° SE night (unlit)
25 Sep - 09:43:03 10° WSW 09:47:19 18° SSW 09:51:44 10° SSE visible
26 Sep - 04:57:35 10° SSW 05:01:32 17° SSE 05:05:29 10° SE night (unlit)
26 Sep - 06:49:02 10° SW 06:53:58 25° S 06:59:03 10° SE night (unlit)
26 Sep - 08:41:54 10° WSW 08:46:31 21° SSW 08:51:17 10° SE night (unlit)
26 Sep - 10:38:08 10° SSW 10:38:58 10° SSW 10:39:48 10° SSW visible
27 Sep - 03:57:49 10° S 04:00:49 14° SSE 04:03:48 10° SE visible
27 Sep - 05:48:26 10° SW 05:53:13 23° S 05:58:03 10° ESE night (unlit)
27 Sep - 07:40:56 10° WSW 07:45:44 23° S 07:50:41 10° SE night (unlit)
27 Sep - 09:35:09 10° SW 09:38:12 14° SSW 09:41:19 10° S night (unlit)
28 Sep - 02:59:46 10° SSE 03:00:07 10° SSE 03:00:29 10° SSE visible
28 Sep - 04:47:57 10° SW 04:52:28 21° SSE 04:56:58 10° ESE visible
28 Sep - 06:40:04 10° SW 06:44:58 24° S 06:49:56 10° SE night (unlit)
28 Sep - 08:33:32 10° SW 08:37:26 17° SSW 08:41:26 10° SSE night (unlit)
29 Sep - 03:47:40 10° SSW 03:51:44 18° SSE 03:55:45 10° SE visible
29 Sep - 05:39:17 10° SW 05:44:11 24° S 05:49:07 10° SE night (unlit)
29 Sep - 07:32:18 10° WSW 07:36:41 20° SSW 07:41:09 10° SSE night (unlit)
30 Sep - 02:47:42 10° SSW 02:51:00 14° SSE 02:54:14 10° SE visible
30 Sep - 04:38:35 10° SW 04:43:26 23° S 04:48:14 10° ESE visible
30 Sep - 06:31:14 10° WSW 06:35:56 22° S 06:40:40 10° SE night (unlit)
30 Sep - 08:25:46 10° SW 08:28:20 13° SSW 08:30:57 10° S night (unlit)
01 Oct - 01:48:38 10° S 01:50:16 11° SSE 01:51:53 10° SE visible
01 Oct - 03:38:00 10° SW 03:42:41 21° S 03:47:15 10° ESE visible
01 Oct - 05:30:17 10° SW 05:35:12 24° S 05:40:03 10° SE night (unlit)
01 Oct - 07:23:57 10° SW 07:27:37 16° SSW 07:31:20 10° SSE night (unlit)
02 Oct - 02:37:34 10° SSW 02:41:55 19° SSE 02:46:09 10° ESE visible
02 Oct - 04:29:24 10° SW 04:34:26 25° S 04:39:20 10° SE visible
02 Oct - 06:22:35 10° WSW 06:26:54 19° SSW 06:31:12 10° SSE night (unlit)
03 Oct - 01:37:24 10° SSW 01:41:08 16° SSE 01:44:46 10° SE visible
03 Oct - 03:28:35 10° SW 03:33:38 24° S 03:38:33 10° ESE visible
03 Oct - 05:21:24 10° WSW 05:26:10 22° S 05:30:51 10° SE visible
03 Oct - 07:16:15 10° SW 07:18:31 12° SSW 07:20:47 10° S night (unlit)
04 Oct - 00:37:51 10° S 00:40:22 12° SSE 00:42:50 10° SE daylight
04 Oct - 02:27:51 10° SW 02:32:51 22° S 02:37:39 10° ESE visible
04 Oct - 04:20:20 10° WSW 04:25:24 24° S 04:30:20 10° SE visible
04 Oct - 06:14:12 10° SW 06:17:49 16° SSW 06:21:25 10° SSE night (unlit)
